WEATHER DATA

AVUI
Time Temperatura Punt de Rosada Humitat Direcció Velocitat Wind gust Pressió 1h Prec. 24h Prec.
00:02 15.6 11.6 77 238 2.5 3.9 1009.7 0.0000 0.0000
00:12 15.6 11.6 77 240 2.8 5 1009.5 0.0000 0.0000
00:22 15.7 11.7 77 230 2.2 3.6 1009.5 0.0000 0.0000
00:32 15.7 11.7 77 224 2.2 3.3 1009.5 0.0000 0.0000
00:42 15.7 11.7 77 233 2.5 4.7 1009.5 0.0000 0.0000
00:53 15.7 11.7 77 232 3.1 4.4 1009.4 0.0000 0.0000
01:03 15.7 11.9 78 242 2.8 5 1009.4 0.0000 0.0000
01:12 15.7 11.9 78 240 2.8 4.7 1009.4 0.0000 0.0000
01:23 15.7 11.9 78 231 2.8 5.3 1009.4 0.0000 0.0000
01:33 15.7 11.9 78 232 2.8 5.3 1009.4 0.0000 0.0000
01:43 15.7 11.9 78 230 2.8 4.4 1009.2 0.0000 0.0000
01:53 15.7 12.1 79 235 2.8 4.2 1009.4 0.0000 0.0000
02:03 15.7 12.1 79 234 2.8 4.4 1009.3 0.0000 0.0000
02:13 15.7 12.1 79 228 2.8 5 1009.2 0.0000 0.0000
02:23 15.7 12.1 79 236 2.5 3.9 1009.1 0.0000 0.0000
02:33 15.8 12.2 79 234 2.2 3.3 1009.2 0.0000 0.0000
02:44 15.8 12.2 79 234 2.5 4.4 1009.2 0.0000 0.0000
02:53 15.8 12.2 79 235 3.1 5 1009.1 0.0000 0.0000
03:03 15.8 12.2 79 236 3.1 5.6 1009.1 0.0000 0.0000
03:14 15.8 12.2 79 241 2.8 5.6 1009 0.0000 0.0000
03:24 15.9 12.1 78 242 2.8 5.8 1009.1 0.0000 0.0000
03:34 15.9 12.1 78 240 3.1 5 1009.2 0.0000 0.0000
03:44 15.9 12.1 78 238 2.5 4.4 1009.2 0.0000 0.0000
03:54 15.9 12.1 78 238 2.5 5 1009.1 0.0000 0.0000
04:04 16 12.2 78 227 2.8 5.6 1009 0.0000 0.0000
04:14 16 12.4 79 238 2.5 5.3 1009.1 0.0000 0.0000
04:25 16 12.2 78 237 2.5 4.4 1009 0.0000 0.0000
04:35 16.1 12.3 78 243 2.8 5 1009.1 0.0000 0.0000
04:44 16.1 12.3 78 240 2.5 4.4 1009 0.0000 0.0000
04:54 16.1 12.3 78 239 1.9 3.6 1009.3 0.0000 0.0000
05:05 16 12.2 78 234 2.2 4.2 1009.4 0.0000 0.0000
05:15 16 12.4 79 240 1.9 4.2 1009.3 0.0000 0.0000
05:25 16 12.4 79 243 2.2 3.6 1009.4 0.0000 0.0000
05:35 16 12.4 79 239 2.2 4.2 1009.3 0.0000 0.0000
05:45 16 12.4 79 245 2.2 3.6 1009.3 0.0000 0.0000
05:55 16 12.4 79 237 2.2 3.6 1009.6 0.0000 0.0000
06:05 16 12.4 79 239 2.2 3.9 1009.4 0.0000 0.0000
06:16 16 12.4 79 236 1.9 3.3 1009.5 0.0000 0.0000
06:25 16 12.4 79 240 2.2 4.2 1009.5 0.0000 0.0000
06:35 15.9 12.3 79 232 2.5 4.2 1009.6 0.0000 0.0000
06:46 15.9 12.5 80 235 2.5 4.2 1009.5 0.0000 0.0000
06:56 15.9 12.5 80 240 2.5 4.7 1009.5 0.0000 0.0000
07:06 16 12.6 80 240 2.5 4.2 1009.5 0.0000 0.0000
07:15 16 12.6 80 246 2.8 4.7 1009.6 0.0000 0.0000
07:26 16.1 12.7 80 236 2.5 4.4 1009.8 0.0000 0.0000
07:36 16.1 12.7 80 243 2.5 4.7 1009.8 0.0000 0.0000
07:46 16.2 12.7 80 240 2.8 5 1009.8 0.0000 0.0000
07:56 16.3 12.8 80 244 2.5 5.6 1009.9 0.0000 0.0000
08:06 16.5 12.8 79 239 1.9 4.4 1009.9 0.0000 0.0000
08:16 16.6 12.9 79 238 1.9 3.9 1010.1 0.0000 0.0000
08:26 16.8 13.1 79 239 1.4 3.3 1010.2 0.0000 0.0000
08:37 16.9 13 78 243 1.7 3.3 1010.1 0.0000 0.0000
08:46 17.1 13.2 78 237 1.4 3.3 1010 0.0000 0.0000
08:56 17.2 13.3 78 244 1.4 2.5 1010.2 0.0000 0.0000
09:06 17.3 13.4 78 244 1.4 2.5 1010.1 0.0000 0.0000
09:17 17.4 13.5 78 245 1.1 2.2 1010.4 0.0000 0.0000
09:27 17.6 13.5 77 248 1.4 2.5 1010.4 0.0000 0.0000
09:36 17.7 13.6 77 235 1.1 2.8 1010.4 0.0000 0.0000
09:47 17.9 13.8 77 228 1.4 3.1 1010.6 0.0000 0.0000
09:57 18.2 13.9 76 226 1.7 3.9 1010.6 0.0000 0.0000
10:07 18.4 14.1 76 225 1.7 3.1 1010.5 0.0000 0.0000
10:17 18.6 14.1 75 228 1.9 3.9 1010.6 0.0000 0.0000
10:28 18.9 14.2 74 228 3.1 5.3 1010.5 0.0000 0.0000
10:37 19.3 14.3 73 228 2.5 4.4 1010.6 0.0000 0.0000
10:47 19.6 14.4 72 231 2.8 5 1010.7 0.0000 0.0000
10:58 20 14.6 71 235 2.5 3.6 1010.7 0.0000 0.0000
11:08 20.4 14.8 70 244 2.5 5 1010.7 0.0000 0.0000
11:18 20.9 14.8 68 240 2.2 3.9 1010.7 0.0000 0.0000
11:27 21.2 14.6 66 247 2.5 8.9 1010.9 0.0000 0.0000
11:38 21.3 14.5 65 250 2.5 6.1 1010.8 0.0000 0.0000
11:48 21.3 14.5 65 247 2.5 7.5 1011 0.0000 0.0000
11:58 21.4 14.6 65 242 2.8 5.8 1011 0.0000 0.0000
12:08 21.6 14.5 64 240 2.5 5 1011.3 0.0000 0.0000
12:20 21.7 14.6 64 244 2.5 7.8 1011 0.0000 0.0000
12:31 21.7 14.6 64 249 2.5 6.9 1011.2 0.0000 0.0000
12:41 21.6 14.3 63 244 2.5 6.7 1011 0.0000 0.0000
12:51 21.9 14.3 62 238 2.5 4.2 1011 0.0000 0.0000
13:01 22.1 14.7 63 230 2.5 3.6 1011.2 0.0000 0.0000
13:11 22.5 14.6 61 233 2.5 3.6 1011.2 0.0000 0.0000
13:19 22.6 14.7 61 235 2.5 8.6 1011.2 0.0000 0.0000
13:30 22.7 14.5 60 231 2.5 3.6 1011.2 0.0000 0.0000
13:40 22.9 14.7 60 225 2.8 5.3 1011 0.0000 0.0000
13:50 22.9 14.7 60 236 2.5 3.9 1011.1 0.0000 0.0000
14:00 22.5 14.6 61 234 2.5 8.9 1011.2 0.0000 0.0000
14:11 22.2 14.3 61 238 2.5 5 1011.1 0.0000 0.0000
14:21 22 14.6 63 242 2.5 6.7 1011.2 0.0000 0.0000
14:29 21.8 14.7 64 244 2.5 5.3 1011.2 0.0000 0.0000
14:41 21.8 14.9 65 249 2.5 6.1 1011.3 0.0000 0.0000
14:51 21.8 14.7 64 257 3.1 6.9 1011.1 0.0000 0.0000
15:01 21.6 14.7 65 246 2.5 5.6 1011.2 0.0000 0.0000
15:11 21.5 14.6 65 252 2.2 5.3 1011.3 0.0000 0.0000
15:21 21.3 14.7 66 261 2.5 6.4 1011.3 0.0000 0.0000
15:31 21.2 14.6 66 244 2.2 4.7 1011.3 0.0000 0.0000
15:41 21.2 14.8 67 255 2.2 4.7 1011.4 0.0000 0.0000
15:51 21.3 14.7 66 254 2.5 5.6 1011.5 0.0000 0.0000
16:02 21.2 14.8 67 244 2.5 5.6 1011.4 0.0000 0.0000
16:11 21 14.6 67 277 2.8 6.9 1011.5 0.0000 0.0000
16:21 20.9 14.5 67 281 2.8 6.7 1011.7 0.0000 0.0000
16:32 20.9 14.8 68 320 3.1 6.1 1011.6 0.0000 0.0000
16:42 20.9 14.8 68 304 2.8 4.7 1011.6 0.0000 0.0000
16:52 20.9 14.8 68 247 2.5 4.7 1011.5 0.0000 0.0000
17:02 20.9 14.8 68 281 2.5 4.7 1011.6 0.0000 0.0000
17:12 20.9 14.8 68 263 2.5 4.4 1011.6 0.0000 0.0000
17:22 20.8 14.7 68 249 2.2 4.7 1011.5 0.0000 0.0000
17:32 20.7 14.8 69 246 1.9 3.6 1011.4 0.0000 0.0000
17:43 20.6 14.7 69 245 1.9 3.6 1011.6 0.0000 0.0000
17:52 20.4 14.5 69 240 1.9 3.6 1011.6 0.0000 0.0000
18:02 20.4 14.8 70 232 2.2 3.3 1011.6 0.0000 0.0000
18:12 20.3 14.7 70 231 2.2 3.3 1011.7 0.0000 0.0000
18:23 20.3 14.7 70 228 2.2 3.1 1011.8 0.0000 0.0000
18:33 20.2 14.6 70 217 1.9 2.5 1011.9 0.0000 0.0000
18:42 20.2 14.6 70 222 1.7 2.2 1011.9 0.0000 0.0000
18:53 20.2 14.8 71 223 1.4 1.9 1012.1 0.0000 0.0000
19:03 20 14.6 71 215 1.1 1.7 1012.1 0.0000 0.0000
19:13 20 14.6 71 219 1.1 1.7 1012.2 0.0000 0.0000
19:23 19.9 14.7 72 219 1.1 1.7 1012.2 0.0000 0.0000
19:33 19.8 14.6 72 218 1.1 1.7 1012.3 0.0000 0.0000
19:43 19.7 14.5 72 232 1.1 1.7 1012.4 0.0000 0.0000
19:53 19.5 14.5 73 226 0.8 1.4 1012.3 0.0000 0.0000
20:04 19.5 14.5 73 221 0.6 1.1 1012.3 0.0000 0.0000
20:14 19.4 14.4 73 225 0.8 1.4 1012.4 0.0000 0.0000
20:23 19.4 14.4 73 225 0.6 1.1 1012.4 0.0000 0.0000
20:33 19.3 14.3 73 218 0.3 0.8 1012.6 0.0000 0.0000
20:44 19.3 14.3 73 215 0.3 0.8 1012.7 0.0000 0.0000
20:54 19.2 14.2 73 216 0.6 0.8 1012.7 0.0000 0.0000
21:04 19.1 14.4 74 225 0.3 0.8 1012.8 0.0000 0.0000
21:14 19 14.3 74 212 0.6 1.1 1012.8 0.0000 0.0000
21:24 18.9 14.2 74 218 0.3 0.8 1012.9 0.0000 0.0000
21:34 18.9 14.2 74 203 0.3 0.8 1012.9 0.0000 0.0000
21:44 18.8 14.1 74 0 0.6 1013.1 0.0000 0.0000
21:55 18.7 14 74 207 0.3 0.8 1013 0.0000 0.0000
22:03 18.6 13.9 74 228 0.6 1.1 1013.1 0.0000 0.0000
22:13 18.6 13.9 74 216 0.3 0.8 1013.1 0.0000 0.0000
22:24 18.5 13.8 74 225 0.3 0.8 1012.9 0.0000 0.0000
22:34 18.5 13.8 74 225 0.3 0.6 1013 0.0000 0.0000
22:43 18.4 13.7 74 225 0.3 0.8 1013.1 0.0000 0.0000
22:54 18.4 13.9 75 270 0.3 0.8 1013.2 0.0000 0.0000
23:04 18.3 13.8 75 252 0.6 1.1 1013.2 0.0000 0.0000
23:14 18.2 13.7 75 270 0.6 1.1 1013.3 0.0000 0.0000
23:24 18.1 13.6 75 270 0.3 0.8 1013.3 0.0000 0.0000

DAY STATISTIC

2021-09-25
TEMPERATURA
MITJANA
18.6
ALT
22.9
13:40
BAIX
15.6
00:02
PRESSIÓ
MITJANA
1010.8
ALT
1013.3
23:14
BAIX
1009.0
03:14
PUNT DE ROSADA
MITJANA
13.6
ALT
14.9
14:41
BAIX
11.6
00:02
HUMITAT
MITJANA
73
ALT
80
06:46
BAIX
60
13:30
VELOCITAT DEL VENT
MITJANA
2.0
ALT
3.1
00:53
WIND GUST
MITJANA
3.9
ALT
8.9
11:27
DIRECCIÓ DEL VENT
PREDOMINANT
SW
84.3%
N
0.0
NE
0.0
E
0.0
SE
0.0
S
0.7
SW
84.3
W
12.9
NW
1.4
PRECIPITACIÓ
PLUJA PER HORA
0.0
PUJA PER DIA
0.0
TEMPERATURA (°C)
BAIX
15.6
ALT
22.9
MITJANA
18.6
PRESSIÓ (hpa)
BAIX
1009.0
ALT
1013.3
MITJANA
1010.8
DEVICE